• In Hungary
  • List of Countries
  • For 7 days
  • Water Temperature
  • Satellite Maps
  • Weather Map
  • News
  • Weather Widgets
  • user-avatar
    Login

    Hourly Weather Kolokani

    Today, 22 July, Sunday

    Time Temperature Precipitation Wind Pressure Humidity
    00:00 +29°C° 0.1 mm 2 mps 723 mmHg 64%
    01:00 +28°C° 0.1 mm 3 mps 722 mmHg 69%
    02:00 +28°C° 0.1 mm 3 mps 722 mmHg 73%
    03:00 +27°C° 0.1 mm 3 mps 722 mmHg 76%
    04:00 +27°C° 0.1 mm 3 mps 722 mmHg 79%
    05:00 +26°C° 0.1 mm 2 mps 723 mmHg 81%
    06:00 +27°C° 0.1 mm 2 mps 723 mmHg 76%
    07:00 +28°C° 0.1 mm 2 mps 723 mmHg 71%
    08:00 +29°C° 0.1 mm 2 mps 724 mmHg 66%
    09:00 +31°C° 0.1 mm 2 mps 724 mmHg 62%
    10:00 +32°C° 0.1 mm 2 mps 724 mmHg 57%
    11:00 +34°C° 0.1 mm 3 mps 724 mmHg 53%
    12:00 +35°C° 0 mm 3 mps 723 mmHg 49%
    13:00 +36°C° 0 mm 3 mps 723 mmHg 46%
    14:00 +36°C° 0 mm 3 mps 722 mmHg 43%
    15:00 +35°C° 0.9 mm 3 mps 722 mmHg 48%
    16:00 +34°C° 0.9 mm 3 mps 722 mmHg 53%
    17:00 +33°C° 0.9 mm 3 mps 722 mmHg 58%
    18:00 +31°C° 5.3 mm 3 mps 722 mmHg 63%
    19:00 +30°C° 5.3 mm 3 mps 723 mmHg 69%
    20:00 +28°C° 5.3 mm 3 mps 723 mmHg 75%
    21:00 +28°C° 0.3 mm 3 mps 723 mmHg 75%
    22:00 +28°C° 0.3 mm 3 mps 724 mmHg 76%
    23:00 +28°C° 0.3 mm 3 mps 725 mmHg 76%

    Tomorrow, 23 July, Monday

    Time Temperature Precipitation Wind Pressure Humidity
    00:00 +27°C° 0.7 mm 3 mps 724 mmHg 77%
    01:00 +27°C° 0.7 mm 3 mps 724 mmHg 79%
    02:00 +26°C° 0.7 mm 3 mps 723 mmHg 80%
    03:00 +26°C° 1 mm 3 mps 723 mmHg 81%
    04:00 +26°C° 1 mm 3 mps 724 mmHg 82%
    05:00 +26°C° 1 mm 2 mps 724 mmHg 83%
    06:00 +26°C° 0.2 mm 2 mps 724 mmHg 81%
    07:00 +27°C° 0.2 mm 2 mps 725 mmHg 78%
    08:00 +27°C° 0.2 mm 1 mps 725 mmHg 76%
    09:00 +28°C° 0.5 mm 2 mps 725 mmHg 71%
    10:00 +29°C° 0.5 mm 2 mps 725 mmHg 67%
    11:00 +31°C° 0.5 mm 2 mps 726 mmHg 62%
    12:00 +31°C° 0.6 mm 2 mps 725 mmHg 59%
    13:00 +32°C° 0.6 mm 2 mps 724 mmHg 57%
    14:00 +32°C° 0.6 mm 2 mps 724 mmHg 54%
    15:00 +32°C° 1.5 mm 2 mps 724 mmHg 58%
    16:00 +31°C° 1.5 mm 2 mps 723 mmHg 61%
    17:00 +30°C° 1.5 mm 2 mps 723 mmHg 65%
    18:00 +29°C° 0 mm 2 mps 724 mmHg 68%
    19:00 +29°C° 0 mm 2 mps 724 mmHg 72%
    20:00 +28°C° 0 mm 2 mps 725 mmHg 75%
    21:00 +28°C° 0 mm 2 mps 725 mmHg 76%
    22:00 +27°C° 0 mm 2 mps 725 mmHg 76%
    23:00 +27°C° 0 mm 2 mps 725 mmHg 77%

    Day after tomorrow, 24 July, Tuesday

    Time Temperature Precipitation Wind Pressure Humidity
    00:00 +27°C° 0.1 mm 2 mps 725 mmHg 79%
    01:00 +26°C° 0.1 mm 2 mps 725 mmHg 80%
    02:00 +26°C° 0.1 mm 2 mps 724 mmHg 82%
    03:00 +26°C° 0 mm 2 mps 724 mmHg 83%
    04:00 +25°C° 0 mm 2 mps 724 mmHg 83%
    05:00 +25°C° 0 mm 2 mps 724 mmHg 84%
    06:00 +26°C° 0 mm 3 mps 724 mmHg 79%
    07:00 +28°C° 0 mm 3 mps 725 mmHg 74%
    08:00 +29°C° 0 mm 4 mps 725 mmHg 69%
    09:00 +30°C° 0 mm 4 mps 725 mmHg 63%
    10:00 +33°C° 0 mm 4 mps 725 mmHg 58%
    11:00 +35°C° 0 mm 3 mps 725 mmHg 52%
    12:00 +35°C° 0 mm 3 mps 725 mmHg 49%
    13:00 +36°C° 0 mm 3 mps 724 mmHg 47%
    14:00 +36°C° 0 mm 3 mps 723 mmHg 45%
    15:00 +36°C° 0 mm 3 mps 723 mmHg 47%
    16:00 +35°C° 0 mm 3 mps 723 mmHg 49%
    17:00 +35°C° 0 mm 3 mps 723 mmHg 52%
    18:00 +34°C° 0.1 mm 2 mps 723 mmHg 56%
    19:00 +31°C° 0.1 mm 2 mps 724 mmHg 61%
    20:00 +30°C° 0.1 mm 2 mps 724 mmHg 66%
    21:00 +30°C° 0.3 mm 2 mps 724 mmHg 68%
    22:00 +29°C° 0.3 mm 3 mps 725 mmHg 70%
    23:00 +29°C° 0.3 mm 3 mps 725 mmHg 72%

    25 July, Wednesday

    Time Temperature Precipitation Wind Pressure Humidity
    00:00 +28°C° 0.9 mm 3 mps 724 mmHg 75%
    01:00 +28°C° 0.9 mm 4 mps 724 mmHg 78%
    02:00 +27°C° 0.9 mm 5 mps 724 mmHg 81%
    03:00 +27°C° 0 mm 5 mps 724 mmHg 82%
    04:00 +26°C° 0 mm 5 mps 724 mmHg 84%
    05:00 +26°C° 0 mm 6 mps 724 mmHg 85%
    06:00 +27°C° 0 mm 6 mps 724 mmHg 81%
    07:00 +28°C° 0 mm 6 mps 725 mmHg 77%
    08:00 +28°C° 0 mm 6 mps 725 mmHg 72%
    09:00 +30°C° 0 mm 6 mps 725 mmHg 66%
    10:00 +33°C° 0 mm 5 mps 725 mmHg 59%
    11:00 +35°C° 0 mm 5 mps 725 mmHg 52%
    12:00 +35°C° 0 mm 4 mps 725 mmHg 50%
    13:00 +36°C° 0 mm 4 mps 724 mmHg 47%
    14:00 +37°C° 0 mm 4 mps 724 mmHg 44%
    15:00 +36°C° 0 mm 3 mps 723 mmHg 46%
    16:00 +36°C° 0 mm 3 mps 723 mmHg 48%
    17:00 +36°C° 0 mm 3 mps 723 mmHg 49%
    18:00 +34°C° 0 mm 3 mps 723 mmHg 53%
    19:00 +33°C° 0 mm 3 mps 724 mmHg 56%
    20:00 +31°C° 0 mm 3 mps 724 mmHg 59%
    21:00 +31°C° 0 mm 3 mps 724 mmHg 60%
    22:00 +30°C° 0 mm 3 mps 724 mmHg 62%
    23:00 +30°C° 0 mm 3 mps 724 mmHg 63%

    26 July, Thursday

    Time Temperature Precipitation Wind Pressure Humidity
    00:00 +29°C° 0 mm 3 mps 724 mmHg 65%
    01:00 +29°C° 0 mm 4 mps 723 mmHg 67%
    02:00 +29°C° 0 mm 4 mps 722 mmHg 69%
    03:00 +28°C° 0 mm 4 mps 723 mmHg 71%
    04:00 +28°C° 0 mm 4 mps 723 mmHg 74%
    05:00 +27°C° 0 mm 4 mps 723 mmHg 76%
    06:00 +28°C° 0 mm 4 mps 723 mmHg 75%
    07:00 +29°C° 0 mm 5 mps 724 mmHg 73%
    08:00 +29°C° 0 mm 5 mps 725 mmHg 72%
    09:00 +32°C° 0 mm 5 mps 724 mmHg 67%
    10:00 +33°C° 0 mm 5 mps 724 mmHg 62%
    11:00 +34°C° 0 mm 5 mps 724 mmHg 56%
    12:00 +34°C° 0.2 mm 5 mps 724 mmHg 55%
    13:00 +35°C° 0.2 mm 4 mps 723 mmHg 54%
    14:00 +35°C° 0.2 mm 4 mps 723 mmHg 52%
    15:00 +34°C° 0.4 mm 4 mps 723 mmHg 55%
    16:00 +34°C° 0.4 mm 4 mps 723 mmHg 57%
    17:00 +33°C° 0.4 mm 3 mps 723 mmHg 59%
    18:00 +31°C° 0.3 mm 3 mps 723 mmHg 63%
    19:00 +30°C° 0.3 mm 2 mps 723 mmHg 67%
    20:00 +29°C° 0.3 mm 2 mps 724 mmHg 71%
    21:00 +29°C° 0.3 mm 2 mps 724 mmHg 73%
    22:00 +28°C° 0.3 mm 2 mps 724 mmHg 76%
    23:00 +28°C° 0.3 mm 2 mps 724 mmHg 78%

    27 July, Friday

    Time Temperature Precipitation Wind Pressure Humidity
    00:00 +27°C° 0.7 mm 2 mps 724 mmHg 80%
    01:00 +27°C° 0.7 mm 2 mps 723 mmHg 83%
    02:00 +26°C° 0.7 mm 2 mps 723 mmHg 85%
    03:00 +26°C° 0.7 mm 2 mps 723 mmHg 85%
    04:00 +26°C° 0.7 mm 2 mps 723 mmHg 84%
    05:00 +26°C° 0.7 mm 2 mps 723 mmHg 84%
    06:00 +27°C° 0.9 mm 2 mps 724 mmHg 82%
    07:00 +27°C° 0.9 mm 2 mps 725 mmHg 79%
    08:00 +28°C° 0.9 mm 3 mps 725 mmHg 77%
    09:00 +28°C° 1.3 mm 3 mps 725 mmHg 76%
    10:00 +28°C° 1.3 mm 3 mps 725 mmHg 76%
    11:00 +28°C° 1.3 mm 3 mps 725 mmHg 75%
    12:00 +28°C° 0.2 mm 3 mps 724 mmHg 72%
    13:00 +29°C° 0.2 mm 3 mps 724 mmHg 68%
    14:00 +30°C° 0.2 mm 3 mps 723 mmHg 65%
    15:00 +30°C° 0 mm 3 mps 723 mmHg 65%
    16:00 +30°C° 0 mm 2 mps 723 mmHg 65%
    17:00 +29°C° 0 mm 2 mps 723 mmHg 65%
    18:00 +28°C° 0 mm 2 mps 724 mmHg 69%
    19:00 +27°C° 0 mm 2 mps 724 mmHg 74%
    20:00 +26°C° 0 mm 2 mps 724 mmHg 78%
    21:00 +26°C° 0 mm 1 mps 724 mmHg 78%
    22:00 +26°C° 0 mm 1 mps 724 mmHg 79%
    23:00 +26°C° 0 mm 1 mps 724 mmHg 79%
    Show more